User: anonymous   Login
Location: Antioch Church
(34.9543°N, 88.5145°W)
Time: 13:10:59
(UTC+00:00)
Language:

NOSS 7 (H) - Orbit

View from above orbital plane
View from above orbital plane
View from above satellite
View from above satellite

Ground track
Ground track

The orbit data is extracted from the following two-line orbital elements,

1 16631U 86014H   20052.67296275  .00000432  00000-0  48456-4 0  9999
2 16631  63.2971 145.1151 0942726  66.6510 303.0809 13.47314526 29740
Epoch (UTC): 21 February 2020 16:09:03
Eccentricity: 0.0942726
inclination: 63.2971°
perigee height: 379 km
apogee height: 1785 km
right ascension of ascending node: 145.1151°
argument of perigee: 66.6510°
revolutions per day: 13.47314526
mean anomaly at epoch: 303.0809°
orbit number at epoch: 2974

The dashed part of the orbit path shows where the satellite is in the earth's shadow,  

DLR